Date String (YYYY-MM-DD hh:mm:ss) UTC,Instrument flags,Ambient pressure (hPa),Sample flow (lpm),Bypass flow (lpm),Sample temperature (°C),Ambient temperature (°C),ASC tube jacket temperature (°C),LED temperature (°C),Box temperature (°C),Sample RH (%),Span deviation,Mass concentration (μg/m³),Mass concentration (μg/m³),Mass concentration (μg/m³)
DateTimeUTC,F1_M11,P_M11,Q1_M11,Q2_M11,T1_M11,T2_M11,T3_M11,T4_M11,T5_M11,U1_M11,ZSPAN_M11,X0_M11,X2_M11,X1_M11
2021-10-21 18:00:00,,0832.8,4.99,0.00,25.1,24.3,00.0,34.2,26.9,16.8,0004.4,0015.61,0004.35,0003.38
2021-10-21 18:01:00,,0832.8,5.00,0.00,25.1,24.3,00.0,34.2,26.9,16.9,0004.2,0015.17,0004.36,0003.41
2021-10-21 18:02:00,,0832.8,5.00,0.00,25.1,24.3,00.0,34.2,26.9,17.0,0004.1,0015.31,0004.42,0003.45
2021-10-21 18:03:00,,0832.9,4.99,0.00,25.1,24.3,00.0,34.2,26.9,16.7,0004.3,0016.23,0004.45,0003.46
2021-10-21 18:04:00,,0832.8,4.99,0.00,25.1,24.3,00.0,34.2,27.0,16.4,0003.8,0015.76,0004.48,0003.46
2021-10-21 18:05:00,,0832.8,5.00,0.00,25.1,24.4,00.0,34.2,27.0,16.5,0003.8,0015.89,0004.50,0003.45
2021-10-21 18:06:00,,0832.7,5.01,0.00,25.1,24.4,00.0,34.2,27.0,16.4,0003.5,0015.61,0004.54,0003.44
2021-10-21 18:07:00,,0832.7,5.00,0.00,25.1,24.4,00.0,34.2,27.0,16.3,0003.3,0014.96,0004.59,0003.43
2021-10-21 18:08:00,,0832.7,4.99,0.00,25.1,24.4,00.0,34.2,27.0,16.4,0003.1,0014.64,0004.60,0003.42
2021-10-21 18:09:00,,0832.7,5.02,0.00,25.1,24.4,00.0,34.2,27.0,16.4,0003.3,0015.39,0004.58,0003.41
2021-10-21 18:10:00,,0832.8,4.99,0.00,25.1,24.4,00.0,34.2,27.0,16.5,0003.4,0014.93,0004.57,0003.39
2021-10-21 18:11:00,,0832.7,5.00,0.00,25.1,24.4,00.0,34.2,27.0,16.8,0003.4,0015.87,0004.56,0003.38
2021-10-21 18:12:00,,0832.7,5.01,0.00,25.1,24.4,00.0,34.2,27.0,16.9,0003.5,0016.35,0004.58,0003.36
2021-10-21 18:13:00,,0832.7,4.99,0.00,25.1,24.4,00.0,34.2,27.0,16.8,0003.7,0016.30,0004.54,0003.33
2021-10-21 18:14:00,,0832.6,5.00,0.00,25.1,24.4,00.0,34.2,27.0,16.9,0003.6,0015.51,0004.53,0003.32
2021-10-21 18:15:00,,0832.7,4.99,0.00,25.1,24.4,00.0,34.2,27.0,17.0,0003.6,0015.53,0004.53,0003.31
2021-10-21 18:16:00,,0832.7,5.01,0.00,25.1,24.4,00.0,34.2,27.0,16.9,0003.8,0015.51,0004.51,0003.32
2021-10-21 18:17:00,,0832.7,4.99,0.00,25.1,24.4,00.0,34.2,27.0,16.8,0003.9,0014.76,0004.47,0003.34
2021-10-21 18:18:00,,0832.6,5.00,0.00,25.1,24.4,00.0,34.2,26.9,16.6,0003.8,0015.29,0004.48,0003.36
2021-10-21 18:19:00,,0832.7,5.00,0.00,25.1,24.4,00.0,34.2,26.9,16.8,0003.7,0015.38,0004.54,0003.38
2021-10-21 18:20:00,,0832.7,4.99,0.00,25.1,24.4,00.0,34.2,26.9,17.0,0003.5,0014.82,0004.62,0003.40
2021-10-21 18:21:00,,0832.7,5.00,0.00,25.1,24.4,00.0,34.1,27.0,16.8,0003.5,0014.96,0004.63,0003.43
2021-10-21 18:22:00,,0832.7,5.00,0.00,25.1,24.4,00.0,34.1,27.0,16.9,0003.4,0014.25,0004.61,0003.45
2021-10-21 18:23:00,,0832.7,4.99,0.00,25.1,24.4,00.0,34.1,26.9,17.0,0003.6,0014.27,0004.56,0003.47
2021-10-21 18:24:00,,0832.7,5.00,0.00,25.1,24.4,00.0,34.1,27.0,17.1,0003.5,0014.14,0004.58,0003.51
2021-10-21 18:25:00,,0832.7,5.01,0.00,25.1,24.4,00.0,34.1,26.9,16.9,0003.3,0013.37,0004.56,0003.53
2021-10-21 18:26:00,,0832.6,5.01,0.00,25.1,24.4,00.0,34.1,26.9,16.4,0002.4,0013.15,0004.55,0003.55
2021-10-21 18:27:00,,0832.7,4.99,0.00,25.1,24.4,00.0,34.1,26.9,16.3,0001.0,0012.89,0004.58,0003.56
2021-10-21 18:28:00,,0832.6,5.01,0.00,25.1,24.4,00.0,34.1,26.9,16.6,0000.0,0013.39,0004.69,0003.56
2021-10-21 18:29:00,,0832.6,5.00,0.00,25.0,24.3,00.0,34.1,26.9,16.8,0000.0,0013.24,0004.73,0003.59
2021-10-21 18:30:00,,0832.6,5.00,0.00,25.0,24.3,00.0,34.1,26.8,17.0,0000.0,0013.42,0004.72,0003.62
2021-10-21 18:31:00,,0832.6,5.00,0.00,25.0,24.3,00.0,34.1,26.8,17.0,0000.0,0013.63,0004.70,0003.64
2021-10-21 18:32:00,,0832.6,4.99,0.00,25.0,24.3,00.0,34.1,26.8,17.0,0000.0,0012.47,0004.65,0003.65
2021-10-21 18:33:00,,0832.6,5.01,0.00,25.0,24.3,00.0,34.1,26.8,16.8,0000.0,0012.73,0004.70,0003.68
2021-10-21 18:34:00,,0832.6,4.99,0.00,25.0,24.3,00.0,34.1,26.8,16.2,0000.0,0012.68,0004.70,0003.67
2021-10-21 18:35:00,,0832.6,5.00,0.00,25.0,24.3,00.0,34.1,26.7,16.6,0000.0,0013.05,0004.70,0003.67
2021-10-21 18:36:00,,0832.6,5.00,0.00,25.0,24.3,00.0,34.1,26.8,16.8,0001.5,0013.41,0004.75,0003.69
2021-10-21 18:37:00,,0832.6,5.01,0.00,25.0,24.3,00.0,34.1,26.8,16.8,0004.9,0013.77,0004.78,0003.72
2021-10-21 18:38:00,,0832.5,5.00,0.00,25.0,24.2,00.0,34.1,26.8,16.4,0004.9,0013.94,0004.79,0003.76
2021-10-21 18:39:00,,0832.5,5.00,0.00,25.0,24.2,00.0,34.1,26.8,16.5,0004.8,0013.67,0004.75,0003.81
2021-10-21 18:40:00,,0832.5,5.00,0.00,25.0,24.3,00.0,34.1,26.8,16.8,0004.8,0014.02,0004.71,0003.82
2021-10-21 18:41:00,,0832.5,5.01,0.00,25.0,24.2,00.0,34.1,26.8,16.8,0004.8,0013.70,0004.70,0003.83
2021-10-21 18:42:00,,0832.5,4.98,0.00,25.0,24.2,00.0,34.1,26.8,16.8,0004.6,0012.69,0004.72,0003.85
2021-10-21 18:43:00,,0832.5,5.00,0.00,25.0,24.3,00.0,34.0,26.8,16.5,0004.7,0012.80,0004.76,0003.86
2021-10-21 18:44:00,,0832.5,5.00,0.00,25.0,24.3,00.0,34.0,26.8,16.3,0004.9,0012.09,0004.74,0003.87
2021-10-21 18:45:00,,0832.5,4.99,0.00,25.0,24.3,00.0,34.0,26.8,16.4,0004.8,0011.48,0004.75,0003.89
2021-10-21 18:46:00,,0832.5,5.00,0.00,24.9,24.3,00.0,34.0,26.7,16.7,0004.5,0011.18,0004.77,0003.93
2021-10-21 18:47:00,,0832.4,5.00,0.00,24.9,24.3,00.0,34.0,26.7,16.8,0004.5,0011.30,0004.85,0003.96
2021-10-21 18:48:00,,0832.5,4.99,0.00,24.9,24.3,00.0,34.0,26.7,16.6,0004.7,0011.06,0004.89,0004.00
2021-10-21 18:49:00,,0832.5,5.01,0.00,24.9,24.3,00.0,34.0,26.8,16.7,0004.7,0011.93,0004.95,0004.04
2021-10-21 18:50:00,,0832.5,5.00,0.00,24.9,24.3,00.0,34.0,26.8,16.7,0004.8,0012.73,0004.94,0004.07
2021-10-21 18:51:00,,0832.5,5.00,0.00,24.9,24.3,00.0,34.0,26.8,16.7,0004.8,0013.10,0004.98,0004.10
2021-10-21 18:52:00,,0832.5,4.98,0.00,24.9,24.3,00.0,34.0,26.8,16.9,0004.7,0013.67,0005.02,0004.13
2021-10-21 18:53:00,,0832.4,5.01,0.00,25.0,24.3,00.0,34.0,26.8,17.0,0004.6,0013.69,0005.06,0004.15
2021-10-21 18:54:00,,0832.4,5.01,0.00,25.0,24.3,00.0,34.0,26.8,16.8,0004.2,0014.01,0005.06,0004.17
2021-10-21 18:55:00,,0832.3,4.99,0.00,25.0,24.3,00.0,34.0,26.8,16.0,0003.8,0015.13,0005.09,0004.19
2021-10-21 18:56:00,,0832.3,5.00,0.00,25.0,24.3,00.0,34.0,26.8,16.1,0004.0,0015.04,0005.09,0004.20
2021-10-21 18:57:00,,0832.3,5.01,0.00,25.0,24.3,00.0,34.0,26.8,16.1,0004.6,0015.09,0005.09,0004.21
2021-10-21 18:58:00,,0832.3,4.99,0.00,25.0,24.3,00.0,34.0,26.8,16.2,0004.7,0015.22,0005.05,0004.22
2021-10-21 18:59:00,,0832.3,5.00,0.00,25.0,24.3,00.0,34.0,26.8,16.5,0004.4,0015.29,0005.03,0004.23
